map of SSI home
SSI - Airport
Location
City:  Brunswick, Georgia, United States
Name:McKinnon St. Simons Island Airport
ICAO:KSSI
IATA:SSI
FAA LID:SSI

Details
Type:Airport (Airfield)
Use:Public/Civil, International (customs landing rights)
Latitude:3109'07"N (31.151972)
Longitude:8123'28"W (-81.391055)
Datum:WGS 1984
Elevation:18 ft (5 m)
Variation:6.81W (WMM2015 magnetic declination)
-0.08 annual change
Runways:2
Longest:5584 × 100 ft (1702 × 30.5 m), paved

Time
Time Zone:UTC-5 (DST-4)
Local Time:

Weather
METAR:KSSI 210753Z AUTO 23006KT 10SM CLR 26/23 A3007 RMK AO2 SLP184 T02560228
TAF:KSSI 210534Z 2106/2206 22004KT P6SM BKN250
FM211600 20007KT P6SM SCT045 SCT250
FM211800 16012KT P6SM VCTS SCT040CB BKN250
FM220200 20005KT P6SM SCT060 BKN120 BKN250

Related Locations
Nearby:
Farthest:USL: 11483 mi / 18480 km
Useless Loop, WA, AU

Find:

   beyond  
but within

Other Information
Maps:
NOTAMs:
Links:
Sources:

  
  • flag of United States
  • flag of Georgia
  

Sectional Chart

Flight Planning
at skyvector.com

Satellite Image

Google Maps Satellite view

 

Copyright © 2004-2018 Karl L. Swartz. All rights reserved.
The Great Circle Mapper name and logo are trademarks of the Great Circle Mapper.
All other trademarks mentioned herein belong to their respective owners.
Please see credits for attibutions and further copyright information.

  Follow gcmap on Facebook Follow gcmap on Twitter Follow gcmap on Google+ GCmap on LinkedIn

hCard Microformat

Geo Microformat